Location: ?????????
(38.5999°N, 22.7695°E)
Time: 16:13:09
(UTC+00:00)

Cosmos 841 Rocket - Pass Details

Date: 23 May 2024
Orbit: 744 x 770 km, 74.0° (Epoch: 23 June)

Event Time Altitude Azimuth Distance (km) Brightness Sun altitude
Rises 00:28:18 0° 338° (NNW) 3,232 7.2 -24.2°
Reaches altitude 10° 00:30:41 10° 336° (NNW) 2,305 6.4 -23.9°
Maximum altitude 00:35:52 67° 255° (WSW) 828 3.4 -23.4°
Enters shadow 00:36:28 62° 215° (SW) 865 3.4 -23.3°
